Location: Newark
(50.4348°N, 30.5552°E)
Time: 03:33:11
(UTC+00:00)

Altair - Pass Details

Date: 20 January 2020
Orbit: 1502 x 1682 km, 47.2° (Epoch: 18 February)

Event Time Altitude Azimuth Distance (km) Brightness Sun altitude
Rises 16:12:18 0° 284° (WNW) 4,896 11.3 -15.9°
Reaches altitude 10° 16:18:53 10° 253° (WSW) 3,861 10.9 -17.0°
Maximum altitude 16:21:15 11° 239° (WSW) 3,754 10.6 -17.3°
Drops below altitude 10° 16:23:36 10° 225° (SW) 3,822 10.4 -17.7°
Sets 16:30:03 0° 193° (SSW) 4,749 10.4 -18.7°
